Location: Deer Lodge Site
(39.6809°N, 119.9392°W)
Time: 15:20:49
(UTC-08:00)

Amateur Radio Satellites - All Passes

Search period start: 06 February 2016 14:50
Search period end: 07 February 2016 14:50
Location: Deer Lodge Site, 39.6809°N, 119.9392°W

Satellite Date Start Highest point End Downlink Frequencies (MHz)
Time Altitude Azimuth
STARS 06 Feb 14:54:03 14:56:46 16° 93° (E) 14:59:29 437.465
YUBILEINY 06 Feb 14:57:57 15:06:51 85° 265° (W) 15:15:40 435.215
KKS-1 06 Feb 14:59:52 15:03:57 35° 98° (E) 15:08:00 437.445
Cosmos 2491 06 Feb 15:00:21 15:08:46 56° 90° (E) 15:17:11 435.465 / 435.565
RS-15 06 Feb 15:01:52 15:11:08 27° 333° (NNW) 15:20:52 29.354- 29.394
Cosmos 2504 06 Feb 15:05:53 15:12:50 26° 67° (ENE) 15:19:25 435.465 / 435.565
ITAMSAT 1 06 Feb 15:10:59 15:14:24 18° 268° (W) 15:17:51 435.822/435.867
ITUPSAT 1 06 Feb 15:22:48 15:26:22 21° 295° (WNW) 15:29:54 437.325
HORYU 2 06 Feb 15:23:50 15:28:11 61° 74° (ENE) 15:32:33 437.375
M-CUBED/EXP-1 PRIME 06 Feb 15:24:26 15:28:06 43° 255° (WSW) 15:31:31 437.505
BEESAT 06 Feb 15:34:21 15:37:14 16° 297° (WNW) 15:40:08 436.000
AUBIESAT-1 06 Feb 15:37:48 15:41:19 36° 256° (WSW) 15:44:38 437.475
ISS 06 Feb 15:51:06 15:53:09 16° 131° (SE) 15:55:14 145.825
MOZHAYETS 4 06 Feb 16:02:14 16:06:52 67° 102° (ESE) 16:11:28
SO-50 06 Feb 16:11:02 16:13:19 14° 253° (WSW) 16:15:35 436.795
AO-7 06 Feb 16:16:04 16:23:07 30° 264° (W) 16:30:13 29.400- 29.500
CUTE-I 06 Feb 16:20:50 16:24:40 21° 64° (ENE) 16:28:32 437.470
STARS 06 Feb 16:29:12 16:33:20 42° 288° (WNW) 16:37:27 437.465
Cubesat XI-IV 06 Feb 16:32:44 16:37:05 26° 66° (ENE) 16:41:27 437.490
CUBESAT XI-V 06 Feb 16:34:17 16:36:50 14° 91° (E) 16:39:21 437.345
KKS-1 06 Feb 16:37:00 16:40:17 21° 294° (WNW) 16:43:33 437.445
BRITE-PL 06 Feb 16:46:49 16:50:51 20° 64° (ENE) 16:54:51 437.365/2234.400
YUBILEINY 06 Feb 16:57:33 17:02:12 16° 284° (WNW) 17:06:51 435.215
Cosmos 2504 06 Feb 16:58:21 17:06:58 68° 268° (W) 17:15:01 435.465 / 435.565
Cosmos 2491 06 Feb 16:58:31 17:05:59 31° 290° (WNW) 17:13:30 435.465 / 435.565
HORYU 2 06 Feb 17:03:39 17:05:07 11° 269° (W) 17:06:36 437.375
LilacSat-2 06 Feb 17:16:40 17:20:22 49° 74° (ENE) 17:24:04 437.200
RS-15 06 Feb 17:21:15 17:29:27 20° 9° (N) 17:37:51 29.354- 29.394
O/OREOS (USA 219) 06 Feb 17:22:45 17:26:06 20° 57° (ENE) 17:29:27 437.305
ISS 06 Feb 17:26:10 17:29:20 51° 326° (NNW) 17:32:31 145.825
BEESAT 3 06 Feb 17:34:03 17:37:52 46° 117° (ESE) 17:41:42 437.485
MOZHAYETS 4 06 Feb 17:41:25 17:43:27 13° 297° (WNW) 17:45:30
BEESAT 2 06 Feb 17:51:38 17:55:29 46° 117° (ESE) 17:59:21 435.950
CUTE-I 06 Feb 17:59:10 18:04:19 51° 260° (W) 18:09:31 437.470
CUBESAT XI-V 06 Feb 18:09:56 18:14:33 55° 286° (WNW) 18:19:06 437.345
GOMX 1 06 Feb 18:09:58 18:15:20 59° 74° (ENE) 18:20:32 467.674
DOVE 4 06 Feb 18:10:23 18:14:53 31° 70° (ENE) 18:19:14 437.250
Cubesat XI-IV 06 Feb 18:12:01 18:16:57 39° 262° (W) 18:21:56 437.490
CANX-2 06 Feb 18:23:08 18:25:42 16° 66° (ENE) 18:28:17 2200.000
BRITE-PL 06 Feb 18:23:12 18:28:49 60° 260° (W) 18:34:25 437.365/2234.400
GONETS M04 06 Feb 18:27:48 18:32:41 16° 61° (ENE) 18:37:35
HO-68 06 Feb 18:32:15 18:38:43 38° 64° (ENE) 18:45:12 435.675
PCSat 06 Feb 18:49:05 18:50:56 12° 39° (NE) 18:52:47 145.827
LilacSat-2 06 Feb 18:54:08 18:54:58 11° 269° (W) 18:55:47 437.200
Cosmos 2504 06 Feb 18:56:27 18:58:28 11° 288° (WNW) 19:00:28 435.465 / 435.565
STRAND 1 06 Feb 19:00:01 19:05:06 57° 100° (E) 19:10:10 437.568
O/OREOS (USA 219) 06 Feb 19:01:22 19:05:41 42° 254° (WSW) 19:10:00 437.305
ISS 06 Feb 19:04:38 19:06:23 14° 345° (NNW) 19:08:08 145.825
CUTE 1.7 + AOD 2 06 Feb 19:12:40 19:16:43 50° 74° (ENE) 19:20:49 437.475
BEESAT 3 06 Feb 19:13:10 19:15:52 17° 314° (NW) 19:18:35 437.485
COMPASS 1 06 Feb 19:18:10 19:21:49 31° 71° (ENE) 19:25:30 437.405
AIST 2 06 Feb 19:18:41 19:22:36 40° 116° (ESE) 19:26:32 435.215
SEEDS 06 Feb 19:25:24 19:29:27 52° 74° (ENE) 19:33:32 437.485
AO-85 06 Feb 19:28:25 19:33:20 41° 51° (NE) 19:37:51 145.980
BEESAT 2 06 Feb 19:30:52 19:33:37 18° 314° (NW) 19:36:24 435.950
CINEMA 3 06 Feb 19:30:59 19:35:41 70° 76° (ENE) 19:40:12 145.822/145.860
RS-15 06 Feb 19:35:19 19:46:35 42° 42° (NE) 19:58:01 29.354- 29.394
ZACube-1 06 Feb 19:38:50 19:41:08 14° 65° (ENE) 19:43:25 437.345
PRISM 06 Feb 19:43:59 19:48:05 51° 100° (E) 19:52:09 437.425
DOVE 4 06 Feb 19:47:58 19:52:30 30° 264° (W) 19:56:53 437.250
FUNcube-1 06 Feb 19:49:10 19:52:01 18° 67° (ENE) 19:54:51 145.935
AAUSAT CUBESAT 2 06 Feb 19:49:50 19:53:53 60° 75° (ENE) 19:57:59 437.432
GOMX 1 06 Feb 19:50:06 19:53:40 18° 268° (W) 19:57:12 467.674
CANX-2 06 Feb 19:57:14 20:01:13 42° 262° (W) 20:05:14 2200.000
DELFI C3 06 Feb 19:58:30 20:00:53 16° 66° (ENE) 20:03:16 145.870
CUBEBUG 2 06 Feb 20:02:20 20:06:37 53° 74° (ENE) 20:10:48 437.445
UWE-3 06 Feb 20:10:46 20:14:55 47° 73° (ENE) 20:18:58 435.000/436.395/437.385
Cosmos 2499 06 Feb 20:17:18 20:24:50 33° 70° (ENE) 20:31:50 435.465 / 435.565
HO-68 06 Feb 20:19:40 20:26:19 41° 261° (W) 20:33:02 435.675
GONETS M04 06 Feb 20:22:11 20:31:01 80° 82° (E) 20:39:52
Oscar 11 06 Feb 20:25:54 20:30:08 64° 75° (ENE) 20:34:24 145.826/435.025
HUMSAT D 06 Feb 20:28:04 20:30:18 14° 65° (ENE) 20:32:32 437.325/437.525
PCSat 06 Feb 20:30:02 20:35:26 64° 59° (ENE) 20:40:48 145.827
STRAND 1 06 Feb 20:40:26 20:43:48 18° 297° (WNW) 20:47:09 437.568
ISS 06 Feb 20:43:13 20:43:58 11° 6° (N) 20:44:43 145.825
CUTE 1.7 + AOD 2 06 Feb 20:51:00 20:52:52 13° 269° (W) 20:54:44 437.475
COMPASS 1 06 Feb 20:54:25 20:57:27 20° 266° (W) 21:00:30 437.405
AIST 2 06 Feb 20:58:05 21:01:15 20° 313° (NW) 21:04:25 435.215
SEEDS 06 Feb 21:03:53 21:05:29 12° 269° (W) 21:07:05 437.485
AO-85 06 Feb 21:09:31 21:13:34 25° 250° (WSW) 21:17:20 145.980
CINEMA 3 06 Feb 21:12:03 21:13:12 11° 270° (W) 21:14:20 145.822/145.860
ZACube-1 06 Feb 21:12:57 21:17:03 47° 261° (W) 21:21:07 437.345
VELOX 1 06 Feb 21:16:57 21:18:16 11° 62° (ENE) 21:19:35 145.980
PRISM 06 Feb 21:20:54 21:22:59 14° 296° (WNW) 21:25:02 437.425
FUNcube-1 06 Feb 21:24:05 21:28:01 36° 262° (W) 21:31:54 145.935
AIST 1 06 Feb 21:29:00 21:32:56 32° 76° (ENE) 21:36:49
AAUSAT CUBESAT 2 06 Feb 21:29:29 21:29:46 10° 270° (W) 21:30:04 437.432
AISAT 06 Feb 21:31:14 21:34:07 17° 65° (ENE) 21:36:59 437.250
DELFI C3 06 Feb 21:31:47 21:35:28 38° 262° (W) 21:39:13 145.870
ESTCUBE 1 06 Feb 21:38:36 21:42:01 22° 67° (ENE) 21:45:27 437.505/2401.250
CUBEBUG 2 06 Feb 21:41:37 21:43:31 13° 268° (W) 21:45:24 437.445
RS-15 06 Feb 21:47:52 21:59:54 69° 245° (WSW) 22:12:03 29.354- 29.394
UWE-3 06 Feb 21:49:22 21:51:36 14° 268° (W) 21:53:50 435.000/436.395/437.385
ANTELSAT 06 Feb 21:53:25 21:57:16 31° 97° (E) 22:01:10 437.575/2403.000
CUBEBUG 1 06 Feb 22:00:05 22:03:47 26° 68° (ENE) 22:07:29 437.445
TIGRISAT 06 Feb 22:01:26 22:05:25 36° 98° (E) 22:09:26 435.000
HUMSAT D 06 Feb 22:01:40 22:05:35 44° 261° (W) 22:09:30 437.325/437.525
UKube-1 06 Feb 22:02:12 22:06:00 31° 70° (ENE) 22:09:50 .
Oscar 11 06 Feb 22:06:07 22:06:40 10° 270° (W) 22:07:14 145.826/435.025
DX 1 06 Feb 22:07:40 22:11:48 42° 71° (ENE) 22:15:57 434.975-435.025
Cosmos 2499 06 Feb 22:10:08 22:18:13 50° 271° (W) 22:25:40 435.465 / 435.565
PCSat 06 Feb 22:14:54 22:18:15 17° 256° (WSW) 22:21:35 145.827
ISS 06 Feb 22:18:40 22:21:21 23° 25° (NNE) 22:24:02 145.825
SPROUT 06 Feb 22:19:02 22:21:25 15° 65° (ENE) 22:23:48 437.525
GONETS M04 06 Feb 22:20:53 22:26:45 20° 281° (W) 22:32:39
50 SAT 06 Feb 22:25:03 22:28:44 74° 76° (ENE) 22:32:27 437.505
POPSAT HIP 1 06 Feb 22:34:35 22:37:42 20° 94° (E) 22:40:48 437.405
NANOSAT C BR1 06 Feb 22:41:16 22:44:39 23° 95° (E) 22:48:00 145.865
DUCHIFAT 1 06 Feb 22:44:14 22:47:39 24° 96° (E) 22:51:01 145.980
UNISAT 6 06 Feb 22:44:35 22:48:53 68° 285° (WNW) 22:53:14 437.425
QB50P1 06 Feb 22:47:09 22:50:48 28° 96° (E) 22:54:25 145.935-145.965
VELOX 1 06 Feb 22:49:40 22:54:07 73° 257° (WSW) 22:58:36 145.980
AISAT 06 Feb 23:05:56 23:10:14 45° 261° (W) 23:14:32 437.250
AIST 1 06 Feb 23:07:10 23:10:17 19° 273° (W) 23:13:22
ESTCUBE 1 06 Feb 23:14:28 23:18:35 35° 262° (W) 23:22:46 437.505/2401.250
ANTELSAT 06 Feb 23:30:29 23:33:50 22° 292° (WNW) 23:37:13 437.575/2403.000
CUBEBUG 1 06 Feb 23:36:11 23:39:58 27° 264° (W) 23:43:46 437.445
POLYITAN 1 06 Feb 23:37:57 23:42:07 71° 286° (WNW) 23:46:18 437.675
UKube-1 06 Feb 23:38:42 23:42:05 22° 265° (W) 23:45:29 .
QB50P2 06 Feb 23:38:47 23:42:58 67° 285° (WNW) 23:47:08 145.880/145.840
TIGRISAT 06 Feb 23:38:48 23:41:52 19° 293° (WNW) 23:44:57 435.000
DX 1 06 Feb 23:45:22 23:48:10 17° 267° (W) 23:50:59 434.975-435.025
SPROUT 06 Feb 23:52:48 23:56:58 49° 260° (W) 00:01:10 437.525
ISS 06 Feb 23:54:49 23:57:57 46° 223° (SW) 00:01:05 145.825
BUGSAT 1 06 Feb 23:59:58 00:04:02 84° 284° (WNW) 00:08:02 437.445
RS-15 07 Feb 00:04:35 00:10:02 14° 265° (W) 00:15:31 29.354- 29.394
POPSAT HIP 1 07 Feb 00:09:49 00:13:32 31° 290° (WNW) 00:17:15 437.405
TISAT 1 07 Feb 00:14:35 00:18:48 76° 256° (WSW) 00:23:04 437.305
SWISSCUBE 07 Feb 00:16:05 00:19:46 23° 66° (ENE) 00:23:28 437.505
NANOSAT C BR1 07 Feb 00:16:49 00:20:21 27° 291° (WNW) 00:23:53 145.865
DUCHIFAT 1 07 Feb 00:19:48 00:23:17 26° 291° (WNW) 00:26:46 145.980
QB50P1 07 Feb 00:23:08 00:26:26 23° 292° (WNW) 00:29:44 145.935-145.965
Oscar 19 07 Feb 00:42:10 00:46:30 27° 96° (E) 00:50:47 437.125/150
Gurwin Techsat 1B 07 Feb 00:49:01 00:50:15 11° 89° (E) 00:51:30 435.225
ITUPSAT 1 07 Feb 00:50:09 00:54:38 44° 71° (ENE) 00:59:11 437.325
PHONESAT 2.4 07 Feb 00:52:52 00:53:52 11° 145° (SE) 00:54:53 2401.200-2431.200
BEESAT 07 Feb 01:00:39 01:05:18 58° 73° (ENE) 01:10:00 436.000
Cosmos 2491 07 Feb 01:12:11 01:19:14 26° 68° (ENE) 01:26:15 435.465 / 435.565
JAS-2 07 Feb 01:17:08 01:22:30 39° 96° (E) 01:27:25 435.910
CUSAT 1 07 Feb 01:30:53 01:38:18 53° 92° (E) 01:46:08 437.405
DANDE 07 Feb 01:37:27 01:44:00 36° 86° (E) 01:51:22 436.750
ITAMSAT 1 07 Feb 01:44:05 01:47:55 20° 93° (E) 01:51:43 435.822/435.867
STARS 07 Feb 01:50:43 01:53:03 14° 64° (ENE) 01:55:22 437.465
BEESAT 3 07 Feb 01:52:47 01:55:59 23° 49° (NE) 01:59:10 437.485
SWISSCUBE 07 Feb 01:52:57 01:57:20 37° 262° (W) 02:01:46 437.505
KKS-1 07 Feb 01:57:12 02:01:05 30° 69° (ENE) 02:04:59 437.445
YUBILEINY 07 Feb 02:03:48 02:10:08 23° 80° (E) 02:16:29 435.215
BEESAT 2 07 Feb 02:11:04 02:14:19 23° 49° (NE) 02:17:32 435.950
Oscar 19 07 Feb 02:21:13 02:25:50 34° 291° (WNW) 02:30:25 437.125/150
Gurwin Techsat 1B 07 Feb 02:25:29 02:30:50 85° 285° (WNW) 02:36:10 435.225
AO-7 07 Feb 02:26:03 02:31:30 19° 91° (E) 02:36:53 29.400- 29.500
PHONESAT 2.4 07 Feb 02:27:29 02:30:39 47° 160° (SSE) 02:33:49 2401.200-2431.200
ITUPSAT 1 07 Feb 02:29:23 02:32:40 19° 267° (W) 02:36:00 437.325
BEESAT 07 Feb 02:41:00 02:43:27 14° 269° (W) 02:45:55 436.000
JAS-2 07 Feb 03:02:39 03:07:21 26° 297° (WNW) 03:11:43 435.910
MOZHAYETS 4 07 Feb 03:03:07 03:07:34 56° 74° (ENE) 03:12:03
Cosmos 2491 07 Feb 03:08:05 03:16:43 66° 267° (W) 03:25:21 435.465 / 435.565
CUSAT 1 07 Feb 03:13:52 03:20:51 35° 290° (WNW) 03:28:08 437.405
HORYU 2 07 Feb 03:17:39 03:19:25 12° 91° (E) 03:21:12 437.375
DANDE 07 Feb 03:19:29 03:26:39 50° 286° (WNW) 03:34:50 436.750
AUBIESAT-1 07 Feb 03:19:58 03:20:06 10° 98° (E) 03:20:12 437.475
ITAMSAT 1 07 Feb 03:22:35 03:27:36 47° 289° (WNW) 03:32:36 435.822/435.867
STARS 07 Feb 03:24:38 03:28:57 54° 259° (W) 03:33:17 437.465
BEESAT 3 07 Feb 03:30:15 03:33:46 31° 246° (WSW) 03:37:15 437.485
KKS-1 07 Feb 03:34:02 03:37:39 24° 265° (W) 03:41:16 437.445
CUBESAT XI-V 07 Feb 03:37:27 03:39:48 14° 63° (ENE) 03:42:09 437.345
AIST 2 07 Feb 03:41:08 03:44:27 23° 48° (NE) 03:47:44 435.215
Cosmos 2504 07 Feb 03:44:01 03:49:53 21° 79° (ENE) 03:55:56 435.465 / 435.565
BEESAT 2 07 Feb 03:48:42 03:52:15 31° 246° (WSW) 03:55:44 435.950
YUBILEINY 07 Feb 03:57:14 04:05:59 73° 279° (W) 04:14:50 435.215
PHONESAT 2.4 07 Feb 04:04:36 04:07:53 77° 356° (N) 04:11:10 2401.200-2431.200
Gurwin Techsat 1B 07 Feb 04:08:26 04:09:56 11° 302° (WNW) 04:11:26 435.225
AO-7 07 Feb 04:16:46 04:25:09 85° 290° (WNW) 04:33:27 29.400- 29.500
M-CUBED/EXP-1 PRIME 07 Feb 04:38:55 04:42:10 50° 290° (WNW) 04:45:34 437.505
SO-50 07 Feb 04:42:21 04:46:25 27° 112° (ESE) 04:50:32 436.795
MOZHAYETS 4 07 Feb 04:42:55 04:45:05 13° 269° (W) 04:47:16
AUBIESAT-1 07 Feb 04:51:37 04:54:51 42° 291° (WNW) 04:58:13 437.475
HORYU 2 07 Feb 04:51:58 04:56:20 58° 286° (WNW) 05:00:42 437.375
Cosmos 2491 07 Feb 05:10:29 05:11:44 10° 287° (WNW) 05:12:58 435.465 / 435.565
DANDE 07 Feb 05:11:24 05:11:52 10° 308° (NW) 05:12:20 436.750
CUBESAT XI-V 07 Feb 05:12:00 05:16:37 63° 259° (W) 05:21:19 437.345
AIST 2 07 Feb 05:19:16 05:23:01 34° 245° (WSW) 05:26:44 435.215
Cosmos 2504 07 Feb 05:33:41 05:42:09 79° 278° (W) 05:51:05 435.465 / 435.565
PHONESAT 2.4 07 Feb 05:41:57 05:45:13 81° 196° (SSW) 05:48:29 2401.200-2431.200
YUBILEINY 07 Feb 06:00:23 06:04:31 14° 301° (WNW) 06:08:42 435.215
AO-7 07 Feb 06:11:17 06:16:45 20° 309° (NW) 06:22:12 29.400- 29.500
GOMX 1 07 Feb 06:14:47 06:17:25 15° 90° (E) 06:19:57 467.674
STRAND 1 07 Feb 06:14:58 06:20:03 75° 74° (ENE) 06:25:12 437.568
CUTE-I 07 Feb 06:16:47 06:22:09 69° 102° (ESE) 06:27:31 437.470
SO-50 07 Feb 06:22:10 06:26:45 38° 309° (NW) 06:31:23 436.795
LilacSat-2 07 Feb 06:25:02 06:28:50 87° 105° (ESE) 06:32:36 437.200
Cubesat XI-IV 07 Feb 06:29:31 06:34:56 89° 106° (ESE) 06:40:19 437.490
BRITE-PL 07 Feb 06:29:54 06:34:37 49° 98° (E) 06:38:57 437.365/2234.400
PRISM 07 Feb 06:32:49 06:36:32 33° 70° (ENE) 06:40:18 437.425
PHONESAT 2.4 07 Feb 07:19:34 07:22:15 23° 208° (SSW) 07:24:55 2401.200-2431.200
CINEMA 3 07 Feb 07:27:57 07:30:24 15° 92° (E) 07:32:52 145.822/145.860
GONETS M04 07 Feb 07:29:43 07:34:52 17° 78° (ENE) 07:40:00
Cosmos 2504 07 Feb 07:32:06 07:37:06 16° 299° (WNW) 07:42:13 435.465 / 435.565
O/OREOS (USA 219) 07 Feb 07:34:17 07:37:50 23° 102° (ESE) 07:41:24 437.305
CANX-2 07 Feb 07:43:01 07:46:55 33° 97° (E) 07:50:48 2200.000
DOVE 4 07 Feb 07:47:30 07:51:49 85° 100° (E) 07:55:58 437.250
HO-68 07 Feb 07:47:43 07:54:30 42° 99° (E) 08:01:12 435.675
GOMX 1 07 Feb 07:51:32 07:55:49 43° 288° (WNW) 07:59:51 467.674
CUBEBUG 2 07 Feb 07:56:25 07:57:25 11° 91° (E) 07:58:26 437.445
STRAND 1 07 Feb 07:57:57 07:59:46 12° 270° (W) 08:01:35 437.568
CUTE-I 07 Feb 07:58:28 08:01:36 16° 299° (WNW) 08:04:45 437.470
PRISM 07 Feb 08:08:58 08:11:56 19° 266° (W) 08:14:56 437.425
BRITE-PL 07 Feb 08:09:34 08:12:36 17° 297° (WNW) 08:15:29 437.365/2234.400
Cubesat XI-IV 07 Feb 08:12:07 08:14:12 12° 301° (WNW) 08:16:18 437.490
Oscar 11 07 Feb 08:15:50 08:17:41 12° 91° (E) 08:19:32 145.826/435.025
CUTE 1.7 + AOD 2 07 Feb 08:33:56 08:38:12 71° 285° (WNW) 08:42:29 437.475
COMPASS 1 07 Feb 08:36:46 08:40:59 68° 101° (E) 08:45:11 437.405
SEEDS 07 Feb 08:45:35 08:49:49 69° 285° (WNW) 08:54:03 437.485
ANTELSAT 07 Feb 08:51:53 08:55:26 25° 69° (ENE) 08:58:57 437.575/2403.000
Cosmos 2499 07 Feb 08:52:27 08:59:26 28° 82° (E) 09:06:35 435.465 / 435.565
TIGRISAT 07 Feb 08:59:35 09:03:19 29° 70° (ENE) 09:07:01 435.000
ZACube-1 07 Feb 09:02:01 09:05:47 31° 97° (E) 09:09:35 437.345
CINEMA 3 07 Feb 09:03:53 09:07:45 39° 288° (WNW) 09:11:37 145.822/145.860
AAUSAT CUBESAT 2 07 Feb 09:08:21 09:12:32 63° 285° (WNW) 09:16:40 437.432
DELFI C3 07 Feb 09:10:41 09:14:10 27° 96° (E) 09:17:37 145.870
FUNcube-1 07 Feb 09:12:29 09:16:27 39° 98° (E) 09:20:27 145.935
O/OREOS (USA 219) 07 Feb 09:13:05 09:17:04 31° 299° (WNW) 09:21:05 437.305
CANX-2 07 Feb 09:19:23 09:22:33 20° 292° (WNW) 09:25:43 2200.000
GONETS M04 07 Feb 09:21:43 09:30:24 88° 278° (W) 09:39:10
POPSAT HIP 1 07 Feb 09:27:17 09:29:39 15° 65° (ENE) 09:32:02 437.405
CUBEBUG 2 07 Feb 09:30:19 09:34:24 57° 286° (WNW) 09:38:32 437.445
NANOSAT C BR1 07 Feb 09:33:27 09:36:09 17° 66° (ENE) 09:38:53 145.865
HO-68 07 Feb 09:35:36 09:42:04 37° 296° (WNW) 09:48:31 435.675
DUCHIFAT 1 07 Feb 09:36:08 09:38:54 17° 66° (ENE) 09:41:40 145.980
UWE-3 07 Feb 09:37:12 09:41:22 67° 284° (WNW) 09:45:35 435.000/436.395/437.385
QB50P1 07 Feb 09:39:21 09:42:28 20° 67° (ENE) 09:45:35 145.935-145.965
UNISAT 6 07 Feb 09:42:25 09:46:48 87° 263° (W) 09:51:06 437.425
AO-85 07 Feb 09:42:44 09:46:18 18° 107° (ESE) 09:49:58 145.980
HUMSAT D 07 Feb 09:46:00 09:49:37 28° 96° (E) 09:53:15 437.325/437.525
Oscar 11 07 Feb 09:49:53 09:54:08 54° 286° (WNW) 09:58:22 145.826/435.025
AIST 1 07 Feb 09:58:02 10:01:16 20° 88° (E) 10:04:31
RS-15 07 Feb 10:02:16 10:09:38 21° 99° (E) 10:17:09 29.354- 29.394
COMPASS 1 07 Feb 10:15:03 10:15:59 11° 297° (WNW) 10:16:54 437.405
ANTELSAT 07 Feb 10:28:23 10:32:04 26° 264° (W) 10:35:43 437.575/2403.000
POLYITAN 1 07 Feb 10:29:27 10:33:41 76° 76° (ENE) 10:37:55 437.675
QB50P2 07 Feb 10:30:14 10:34:29 80° 74° (ENE) 10:38:44 145.880/145.840
TIGRISAT 07 Feb 10:36:33 10:40:00 23° 265° (W) 10:43:26 435.000
ZACube-1 07 Feb 10:38:47 10:41:53 21° 292° (WNW) 10:45:02 437.345
VELOX 1 07 Feb 10:41:26 10:44:53 22° 95° (E) 10:48:18 145.980
Cosmos 2499 07 Feb 10:43:21 10:51:53 63° 281° (WNW) 11:00:43 435.465 / 435.565
DELFI C3 07 Feb 10:45:48 10:48:56 22° 291° (WNW) 10:52:04 145.870
BUGSAT 1 07 Feb 10:48:28 10:52:38 58° 74° (ENE) 10:56:45 437.445
FUNcube-1 07 Feb 10:49:44 10:52:25 17° 293° (WNW) 10:55:07 145.935
AISAT 07 Feb 10:57:07 11:01:10 34° 98° (E) 11:05:09 437.250
POPSAT HIP 1 07 Feb 11:00:57 11:05:03 47° 260° (W) 11:09:09 437.405
ESTCUBE 1 07 Feb 11:07:22 11:11:48 49° 99° (E) 11:16:12 437.505/2401.250
NANOSAT C BR1 07 Feb 11:07:36 11:11:35 40° 261° (W) 11:15:36 145.865
DUCHIFAT 1 07 Feb 11:10:20 11:14:18 39° 262° (W) 11:18:17 145.980
PCSat 07 Feb 11:10:33 11:15:55 70° 116° (ESE) 11:21:20 145.827
QB50P1 07 Feb 11:14:12 11:18:03 33° 263° (W) 11:21:54 145.935-145.965
AO-85 07 Feb 11:21:00 11:26:18 63° 304° (NW) 11:31:47 145.980
HUMSAT D 07 Feb 11:21:53 11:25:07 22° 291° (WNW) 11:28:22 437.325/437.525
GONETS M04 07 Feb 11:23:10 11:28:32 18° 298° (WNW) 11:33:58
CUBEBUG 1 07 Feb 11:24:55 11:29:15 57° 101° (E) 11:33:30 437.445
UKube-1 07 Feb 11:25:31 11:29:50 63° 102° (ESE) 11:34:06 .
JAS-2 07 Feb 11:27:56 11:33:28 23° 62° (ENE) 11:38:43 435.910
50 SAT 07 Feb 11:31:18 11:35:05 70° 283° (WNW) 11:38:51 437.505
DX 1 07 Feb 11:32:28 11:36:51 90° 191° (SSW) 11:41:11 434.975-435.025
AIST 1 07 Feb 11:34:43 11:38:38 31° 283° (WNW) 11:42:35
SPROUT 07 Feb 11:40:03 11:43:45 28° 96° (E) 11:47:25 437.525
Oscar 19 07 Feb 11:58:01 12:02:45 37° 69° (ENE) 12:07:29 437.125/150
TISAT 1 07 Feb 12:00:35 12:03:20 17° 93° (E) 12:06:05 437.305
Gurwin Techsat 1B 07 Feb 12:08:09 12:11:38 18° 63° (ENE) 12:15:08 435.225
RS-15 07 Feb 12:09:05 12:20:11 88° 120° (ESE) 12:31:58 29.354- 29.394
CUSAT 1 07 Feb 12:10:51 12:16:14 29° 67° (ENE) 12:20:31 437.405
VELOX 1 07 Feb 12:17:28 12:21:23 32° 290° (WNW) 12:25:17 145.980
DANDE 07 Feb 12:20:24 12:26:17 25° 64° (ENE) 12:31:09 436.750
BUGSAT 1 07 Feb 12:27:12 12:28:21 11° 269° (W) 12:29:29 437.445
AISAT 07 Feb 12:34:07 12:37:26 21° 293° (WNW) 12:40:43 437.250
Cosmos 2499 07 Feb 12:43:52 12:47:00 12° 303° (WNW) 12:50:11 435.465 / 435.565
ESTCUBE 1 07 Feb 12:45:25 12:48:12 16° 296° (WNW) 12:50:57 437.505/2401.250
ITUPSAT 1 07 Feb 12:53:33 12:55:21 12° 90° (E) 12:57:09 437.325
PCSat 07 Feb 12:56:03 12:59:51 19° 314° (NW) 13:03:41 145.827
ITAMSAT 1 07 Feb 13:01:07 13:05:31 29° 67° (ENE) 13:09:57 435.822/435.867
BEESAT 07 Feb 13:02:55 13:05:49 16° 92° (E) 13:08:41 436.000
CUBEBUG 1 07 Feb 13:02:58 13:05:02 13° 297° (WNW) 13:07:06 437.445
UKube-1 07 Feb 13:03:41 13:05:21 12° 298° (WNW) 13:06:59 .
AO-85 07 Feb 13:05:18 13:07:57 13° 324° (NW) 13:10:35 145.980
SRMSAT 07 Feb 13:09:32 13:10:06 10° 180° (S) 13:10:40 437.500
JAS-2 07 Feb 13:10:02 13:17:51 77° 257° (WSW) 13:25:05 435.910
SO-50 07 Feb 13:14:27 13:18:13 22° 45° (NE) 13:21:54 436.795
SPROUT 07 Feb 13:16:12 13:19:35 23° 292° (WNW) 13:22:56 437.525
AO-7 07 Feb 13:24:06 13:30:45 28° 56° (NE) 13:37:25 29.400- 29.500
TISAT 1 07 Feb 13:35:17 13:39:08 36° 289° (WNW) 13:42:57 437.305
Oscar 19 07 Feb 13:37:50 13:42:07 26° 265° (W) 13:46:24 437.125/150
Gurwin Techsat 1B 07 Feb 13:45:52 13:51:05 59° 259° (W) 13:56:21 435.225
CUSAT 1 07 Feb 13:53:13 13:58:30 32° 274° (W) 14:02:40 437.405
M-CUBED/EXP-1 PRIME 07 Feb 13:53:17 13:54:42 12° 62° (ENE) 13:56:05 437.505
SWISSCUBE 07 Feb 13:53:27 13:58:13 59° 101° (E) 14:02:57 437.505
DANDE 07 Feb 14:02:48 14:09:52 54° 269° (W) 14:15:19 436.750
AUBIESAT-1 07 Feb 14:05:06 14:06:55 13° 62° (ENE) 14:08:41 437.475
YUBILEINY 07 Feb 14:08:32 14:17:13 56° 78° (ENE) 14:25:47 435.215
Cosmos 2491 07 Feb 14:12:55 14:20:09 30° 83° (E) 14:27:21 435.465 / 435.565
HORYU 2 07 Feb 14:16:00 14:17:21 11° 62° (ENE) 14:18:41 437.375
RS-15 07 Feb 14:24:29 14:34:18 32° 326° (NNW) 14:44:37 29.354- 29.394
ITUPSAT 1 07 Feb 14:28:51 14:33:38 68° 286° (WNW) 14:38:24 437.325
BEESAT 07 Feb 14:39:13 14:43:53 52° 288° (WNW) 14:48:31 436.000
ITAMSAT 1 07 Feb 14:40:13 14:44:52 33° 263° (W) 14:49:33 435.822/435.867
